This demonstration page uses our WeatherBlox Daily Observations layout. Learn more.

Hourly Observations for August 10, 2017

Temp ( °F °C ) Dew Point ( °F °C ) Humidity (%) Winds ( mph kmh ) Pressure ( in mb ) Visibility ( mi km ) Precip ( " mm )
12:54 am 00:54 Clear 65 18.3 62 16.7 90 90 SSE 3 6 30.04 1017 10 16.0934 0 0
1:54 am 01:54 Clear 64 17.8 62 16.7 93 93 Calm 30.04 1017 8 12.87472 0 0
2:54 am 02:54 Clear 63 17.2 62 16.7 97 97 SSE 3 6 30.05 1018 7 11.26538 0 0
3:54 am 03:54 Clear with Mist and Fog 62 16.7 61 16.1 96 96 S 3 6 30.05 1018 5 8.0467 0 0
4:54 am 04:54 Clear with Mist and Fog 61 16.1 60 15.6 97 97 S 5 7 30.05 1018 6 9.65604 0 0
5:54 am 05:54 Clear with Mist and Fog 60 15.6 59 15 96 96 SSE 3 6 30.05 1018 4 6.43736 0 0
6:32 am 06:32 Clear with Mist and Fog 60 15.6 59 15 96 96 S 5 7 30.06 1018 2 3.21868 0 0
6:35 am 06:35 Sunny with Mist and Fog 60 15.6 59 15 96 96 SSE 5 7 30.06 1018 4 6.43736 0 0
6:47 am 06:47 Partly Cloudy with Mist and Fog 59 15 59 15 100 100 S 6 9 30.06 1018 4 6.43736 0 0
6:54 am 06:54 Sunny with Mist and Fog 60 15.6 59 15 96 96 S 3 6 30.06 1018 4 6.43736 0 0
7:01 am 07:01 Sunny with Mist and Fog 60 15.6 59 15 96 96 S 3 6 30.09 1019 2.5 4.02335 0 0
7:09 am 07:09 Sunny with Mist and Fog 60 15.6 59 15 96 96 S 5 7 30.09 1019 4 6.43736 0 0
7:54 am 07:54 Sunny with Mist and Fog 64 17.8 62 16.7 93 93 SW 3 6 30.07 1018 5 8.0467 0 0
8:41 am 08:41 Partly Cloudy with Mist and Fog 67 19.4 64 17.8 91 91 WSW 6 9 30.06 1018 6 9.65604 0 0
8:50 am 08:50 Mostly Cloudy with Mist and Fog 66 19 64 18 94 94 W 7 11 30.06 1018 6 9.65604 0 0
8:54 am 08:54 Mostly Cloudy with Mist and Fog 68 20 64 17.8 87 87 WSW 8 13 30.07 1018 5 8.0467 0 0
9:04 am 09:04 Cloudy with Mist and Fog 68 20 65 18.3 90 90 W 7 11 30.06 1018 4 6.43736 0 0
9:54 am 09:54 Cloudy with Mist and Fog 70 21.1 66 18.9 87 87 NW 9 15 30.08 1019 5 8.0467 0 0
10:13 am 10:13 Mostly Cloudy with Haze 72 22.2 66 18.9 82 82 NW 5 7 30.06 1018 6 9.65604 0 0
10:28 am 10:28 Mostly Sunny 74 23.3 66 18.9 76 76 NNW 6 9 30.06 1018 7 11.26538 0 0
10:54 am 10:54 Mostly Sunny 75 23.9 67 19.4 76 76 NNW 8 13 30.08 1019 8 12.87472 0 0
11:54 am 11:54 Sunny 79 26.1 65 18.3 62 62 NNE 7 11 30.07 1018 10 16.0934 0 0
12:54 pm 12:54 Sunny 81 27.2 63 17.2 54 54 ENE 7 11 30.06 1018 10 16.0934 0 0
1:54 pm 13:54 Sunny 81 27.2 65 18.3 58 58 NNE 6 9 30.06 1018 10 16.0934 0 0
2:54 pm 14:54 Sunny 79 26.1 62 16.7 56 56 N 14 22 30.08 1019 10 16.0934 0 0
3:54 pm 15:54 Sunny 77 25 64 17.8 64 64 N 13 20 30.09 1019 10 16.0934 0 0
4:54 pm 16:54 Sunny 75 23.9 63 17.2 66 66 NNE 14 22 30.09 1019 10 16.0934 0 0
5:54 pm 17:54 Sunny 74 23.3 60 15.6 62 62 N 10 17 30.06 1018 10 16.0934 0 0
6:54 pm 18:54 Mostly Sunny 74 23.3 55 12.8 52 52 N 8 13 30.07 1018 10 16.0934 0 0
7:54 pm 19:54 Sunny 72 22.2 57 13.9 59 59 N 8 13 30.06 1018 10 16.0934 0 0
8:54 pm 20:54 Mostly Cloudy 70 21.1 59 15 68 68 N 5 7 30.08 1019 10 16.0934 0 0
9:54 pm 21:54 Clear 70 21.1 60 15.6 71 71 WNW 3 6 30.1 1019 10 16.0934 0 0
10:54 pm 22:54 Mostly Clear 69 20.6 61 16.1 76 76 NNW 7 11 30.11 1020 10 16.0934 0 0
11:54 pm 23:54 Mostly Cloudy 66 18.9 62 16.7 87 87 N 6 9 30.1 1019 10 16.0934 0 0

Powered by AerisWeather